User: anonymous   Login
Location: Mentone
(34.5413°N, 85.5351°W)
Time: 08:42:04
(UTC-05:00)
Language:

Centaur AC-72 - Orbit

View from above orbital plane
View from above orbital plane
View from above satellite
View from above satellite

Ground track
Ground track

The orbit data is extracted from the following two-line orbital elements,

1 21907U 92013B   15087.58910772 -.00000220  00000-0  00000+0 0  9998
2 21907 018.9875 169.6035 6947798 038.3640 014.8517 02.25606828189950
Epoch (UTC): 28 March 2015 14:08:18
Eccentricity: 0.6947798
inclination: 18.9875°
perigee height: 1117 km
apogee height: 35239 km
right ascension of ascending node: 169.6035°
argument of perigee: 38.3640°
revolutions per day: 2.25606828
mean anomaly at epoch: 14.8517°
orbit number at epoch: 18995

The dashed part of the orbit path shows where the satellite is in the earth's shadow,  

DLR